Home > Weather > Selkirk > Past weeks

Flag for Canada Weather for the Past 2 Weeks in Selkirk, Manitoba, Canada

Now
48 °F

Cool.


Feels Like: 47 °F
Forecast: 36 / 58 °F
Wind: 3 mph from East

Location: Winnipeg The Forks Man

Current Time: Apr 30, 2016 at 10:25:46 AM

Latest Report: Apr 30, 2016 at 9:00 AM


Visibility: N/A

Pressure: 30.39 "Hg

Humidity: 49%

Dew Point: 30 °F

Location of SelkirkLocation

Historic Weather in Selkirk — Graph

°F

Selkirk Temperature Yesterday

Maximum temperature yesterday: 61 °F (at 4:00 PM)
Minimum temperature yesterday: 33 °F (at 6:00 AM)
Average temperature yesterday: 48 °F

High & Low Weather Summary for the Past Weeks

 TemperatureHumidityPressure
High69 °F (Apr 20, 6:00 PM)100% (Apr 17, 6:00 AM)30.55 "Hg (Apr 17, 6:00 AM)
Low29 °F (Apr 22, 6:00 AM)17% (Apr 28, 2:00 PM)29.77 "Hg (Apr 15, 11:00 AM)
Average45 °F55%30.17 "Hg
* Reported Apr 15 9:00 AM — Apr 30 9:00 AM, Selkirk, Weather by CustomWeather, © 2016

Note: Actual official high and low records may vary slightly from our data, if they occured in-between our weather recording intervals... More about our weather records

Advertising

Selkirk Weather History for the Previous 24 Hours

Scroll right to see more
 ConditionsComfort  
Time TempWeatherWind HumidityBarometerVisibility
9:00 AM
Sat, Apr 30
48 °FCool.3 mph49%30.39 "HgN/A
8:00 AM45 °FCool.2 mph52%30.37 "HgN/A
7:00 AM39 °FChilly.2 mph61%30.36 "HgN/A
6:00 AM38 °FChilly.2 mph62%30.34 "HgN/A
5:00 AM40 °FChilly.1 mph59%30.32 "HgN/A
4:00 AM42 °FQuite cool.2 mph52%30.31 "HgN/A
3:00 AM42 °FQuite cool.2 mph50%30.29 "HgN/A
2:00 AM43 °FQuite cool.3 mph48%30.28 "HgN/A
1:00 AM45 °FCool.3 mph45%30.27 "HgN/A
12:00 AM46 °FCool.3 mph46%30.27 "HgN/A
11:00 PM
Fri, Apr 29
49 °FCool.6 mph39%30.26 "HgN/A
10:00 PM51 °FCool.7 mph38%30.26 "HgN/A
9:00 PM53 °FCool.6 mph32%30.26 "HgN/A
8:00 PM55 °FRefreshingly cool.6 mph29%30.25 "HgN/A
7:00 PM59 °FRefreshingly cool.7 mph24%30.23 "HgN/A
6:00 PM60 °FRefreshingly cool.6 mph26%30.22 "HgN/A
5:00 PM60 °FRefreshingly cool.6 mph30%30.22 "HgN/A
4:00 PM61 °FRefreshingly cool.5 mph30%30.22 "HgN/A
3:00 PM60 °FRefreshingly cool.6 mph28%30.23 "HgN/A
2:00 PM59 °FRefreshingly cool.3 mph32%30.25 "HgN/A
1:00 PM58 °FRefreshingly cool.3 mph30%30.26 "HgN/A
12:00 PM57 °FRefreshingly cool.3 mph29%30.27 "HgN/A
11:00 AM54 °FCool.3 mph38%30.27 "HgN/A
10:00 AM51 °FCool.2 mph43%30.27 "HgN/A
Weather by CustomWeather, © 2016

See weather overviewHow to use our weather pages